DW0331 Weather Reports


time (UTC)temp
F
wind
direction
speed
knots
gust
knots
rain 1hr
in
rain 24hr
in
rain mn
in
humidity
%
barometer
mb
20260505180006 69 229 11.3 26.1 0.00 0.00 0.00 63 1000.5
20260505175006 68 228 10.4 21.7 0.00 0.00 0.00 63 1000.5
20260505172007 67 228 12.2 25.2 0.00 0.00 0.00 66 1000.4
20260505170005 66 236 12.2 28.7 0.00 0.00 0.00 67 1000.6
20260505165006 67 236 13.9 26.9 0.00 0.00 0.00 67 1000.6
20260505163008 66 218 9.6 20.0 0.00 0.00 0.00 68 1000.2
20260505162005 66 212 13.0 20.0 0.00 0.00 0.00 69 1000.0
20260505161006 66 209 14.8 25.2 0.00 0.00 0.00 70 999.6
20260505153006 63 207 12.2 19.1 0.00 0.00 0.00 73 999.7
20260505152006 63 206 11.3 18.2 0.00 0.00 0.00 72 999.8
20260505151005 63 222 8.7 17.4 0.00 0.00 0.00 72 999.9
20260505125006 62 211 8.7 18.2 0.00 0.00 0.00 76 999.1
20260505124006 61 211 8.7 16.5 0.00 0.00 0.00 77 999.1
20260505123006 60 211 4.3 13.9 0.00 0.00 0.00 79 999.2
20260505122005 58 207 3.5 13.9 0.00 0.00 0.00 82 999.2
20260505121007 58 205 7.8 15.6 0.00 0.00 0.00 82 999.3
20260505120006 58 209 2.6 13.9 0.00 0.00 0.00 80 999.4
20260505115006 58 222 0.9 8.7 0.00 0.00 0.00 81 999.5
20260505114006 58 203 3.5 12.2 0.00 0.00 0.00 81 999.4
20260505113005 58 205 2.6 12.2 0.00 0.00 0.00 81 999.3
20260505112005 58 210 4.3 16.5 0.00 0.00 0.00 81 999.4
20260505102009 58 204 3.5 13.0 0.00 0.00 0.00 82 998.8
20260505101005 58 202 8.7 15.6 0.00 0.00 0.00 82 998.9
20260505100005 58 203 9.6 18.2 0.00 0.00 0.00 80 998.8
20260505095005 58 205 9.6 17.4 0.00 0.00 0.00 79 998.8
20260505094005 59 204 7.8 15.6 0.00 0.00 0.00 77 998.7
20260505093006 59 206 1.7 12.2 0.00 0.00 0.00 76 998.7
20260505092006 59 205 3.5 13.0 0.00 0.00 0.00 77 998.8
20260505091005 59 207 5.2 13.9 0.00 0.00 0.00 75 999.0
20260505090005 59 209 7.0 17.4 0.00 0.00 0.00 76 999.0
20260505085005 59 206 7.8 15.6 0.00 0.00 0.00 75 999.1
20260505084005 59 208 7.8 13.9 0.00 0.00 0.00 74 999.2
20260505083006 60 208 8.7 17.4 0.00 0.00 0.00 73 999.3
20260505082005 59 205 7.0 17.4 0.00 0.00 0.00 73 999.4
20260505081005 59 206 9.6 16.5 0.00 0.00 0.00 72 999.4
20260505080005 59 202 10.4 13.9 0.00 0.00 0.00 73 999.5
20260505075005 58 201 9.6 13.9 0.00 0.00 0.00 73 999.5
20260505074005 58 203 2.6 13.0 0.00 0.00 0.00 74 999.6
20260505073005 57 208 1.7 13.9 0.00 0.00 0.00 73 999.5
20260505072006 57 208 0.9 8.7 0.00 0.00 0.00 72 999.6
20260505071005 57 203 2.6 9.6 0.00 0.00 0.00 71 999.6
20260505070005 57 204 1.7 11.3 0.00 0.00 0.00 71 999.4
20260505065005 56 203 5.2 13.9 0.00 0.00 0.00 69 999.4
20260505064005 55 0 0.0 1.7 0.00 0.00 0.00 73 999.5
20260505062005 55 0 0.0 5.2 0.00 0.00 0.00 72 999.5
20260505061006 55 0 0.0 0.9 0.00 0.00 0.00 74 999.4
20260505053005 53 0 0.0 1.7 0.00 0.00 0.00 76 999.9
20260505052006 53 0 0.0 4.3 0.00 0.01 0.00 77 999.8
20260505051005 53 0 0.0 3.5 0.00 0.02 0.00 77 999.9
20260505041006 54 0 0.0 0.0 0.00 0.05 0.00 75 1000.4
20260505040006 54 0 0.0 0.9 0.00 0.05 0.00 73 1000.5
20260505035005 55 0 0.0 3.5 0.00 0.05 0.05 74 1000.5
20260505034005 55 0 0.0 3.5 0.00 0.05 0.05 72 1000.5
20260505033005 55 0 0.0 0.0 0.00 0.05 0.05 70 1000.6
20260505032005 56 0 0.0 0.0 0.00 0.05 0.05 72 1000.6
20260505031005 56 194 0.9 5.2 0.00 0.05 0.05 70 1000.6
20260505030005 56 0 0.0 4.3 0.00 0.05 0.05 70 1000.7
20260505025005 56 0 0.0 0.0 0.00 0.05 0.05 73 1000.8
20260505024005 56 0 0.0 0.0 0.00 0.05 0.05 73 1000.9
20260505023006 56 0 0.0 0.9 0.00 0.05 0.05 69 1000.9
20260505022005 57 0 0.0 1.7 0.00 0.05 0.05 71 1000.9
20260505021005 57 0 0.0 1.7 0.00 0.05 0.05 69 1000.8
20260505020005 58 0 0.0 1.7 0.00 0.05 0.05 69 1000.9
20260505015005 58 0 0.0 0.0 0.00 0.05 0.05 67 1000.9
20260505013005 59 0 0.0 1.7 0.00 0.05 0.05 66 1001.1
20260505011005 60 0 0.0 9.6 0.00 0.05 0.05 67 1001.1
20260505010005 60 202 0.9 5.2 0.00 0.05 0.05 67 1001.2
20260505005005 60 0 0.0 5.2 0.00 0.05 0.05 64 1001.1
20260505004004 61 0 0.0 5.2 0.00 0.05 0.05 64 1001.2
20260505003005 61 0 0.0 6.1 0.00 0.05 0.05 64 1001.2
20260505002006 61 0 0.0 6.1 0.00 0.05 0.05 64 1001.1
20260505001005 62 208 0.9 6.1 0.00 0.05 0.05 64 1001.0
20260505000005 62 205 1.7 8.7 0.00 0.05 0.05 61 1000.9
20260504235005 62 203 0.9 7.8 0.00 0.05 0.05 61 1000.8
20260504233005 63 0 0.0 0.9 0.00 0.05 0.05 61 1000.7
20260504231005 64 213 3.5 12.2 0.00 0.05 0.05 59 1000.7
20260504230006 64 209 5.2 12.2 0.00 0.05 0.05 59 1000.8
20260504225005 64 206 3.5 12.2 0.00 0.05 0.05 61 1000.8
20260504224005 64 204 8.7 13.0 0.00 0.05 0.05 58 1000.8
20260504223005 65 205 5.2 17.4 0.00 0.05 0.05 56 1000.8
20260504221005 65 208 8.7 14.8 0.00 0.05 0.05 57 1001.0
20260504220005 65 205 9.6 15.6 0.00 0.05 0.05 58 1001.1
20260504215006 65 209 10.4 19.1 0.00 0.05 0.05 56 1001.1
20260504214005 66 212 9.6 20.0 0.00 0.05 0.05 55 1001.1
20260504213005 66 213 11.3 21.7 0.00 0.05 0.05 56 1001.1
20260504212005 65 211 9.6 21.7 0.00 0.05 0.05 55 1001.0
20260504211005 65 212 12.2 19.1 0.00 0.05 0.05 55 1001.0
20260504210005 65 207 13.9 22.6 0.00 0.05 0.05 57 1001.1
20260504205006 65 208 13.0 26.9 0.00 0.05 0.05 55 1001.3
20260504204005 65 206 11.3 20.0 0.00 0.05 0.05 56 1001.3
20260504203005 65 211 10.4 20.9 0.00 0.05 0.05 57 1001.4
20260504202005 64 212 12.2 20.0 0.00 0.05 0.05 56 1001.5
20260504201005 64 207 13.9 24.3 0.00 0.05 0.05 56 1001.4
20260504200005 64 209 13.0 21.7 0.00 0.05 0.05 56 1001.7
20260504194005 64 207 13.9 24.3 0.00 0.05 0.05 56 1001.8
20260504193004 64 210 13.0 21.7 0.00 0.05 0.05 58 1002.0
20260504192005 64 207 14.8 22.6 0.00 0.05 0.05 56 1002.0
20260504191005 63 205 14.8 21.7 0.00 0.05 0.05 58 1002.2
20260504190005 63 210 14.8 22.6 0.00 0.05 0.05 57 1002.2
20260504185005 63 212 12.2 24.3 0.00 0.05 0.05 57 1002.2
20260504184005 63 215 13.0 20.9 0.00 0.05 0.05 56 1002.3
20260504183005 63 209 14.8 23.5 0.00 0.05 0.05 57 1002.3
20260504182004 62 206 15.6 25.2 0.00 0.05 0.05 57 1002.4